Weather History for Pitt Meadows, BC

Change the Weather History Date:

Thursday, October 25, 2012

  Actual Average (CYXX) Record (CYXX)
Temperature  
Mean Temperature 43 °F -  
Max Temperature 52 °F 52 °F 66 °F (2005)
Min Temperature 34 °F 39 °F 35 °F (2007)
Degree Days  
Heating Degree Days 22    
Moisture  
Dew Point 38 °F    
Average Humidity 80    
Maximum Humidity 98    
Minimum Humidity 50    
Precipitation  
Precipitation 0.00 in - - ()
Sea Level Pressure  
Sea Level Pressure 30.38 in    
Wind  
Wind Speed 1 mph ()    
Max Wind Speed 4 mph    
Max Gust Speed -    
Averages and records for this station are not official NWS values.
T = Trace of Precipitation, MM = Missing Value Source: Averaged Metar Reports

Daily Weather History Graph

Daily Weather History Graph

Search for Another Location

Airport:

Trip Planner

Search our weather history database for the weather conditions in past years. The results will help you decide how hot, cold, wet, or windy it might be!

Date:

Astronomy

Oct. 25, 2012 Rise Set
Actual Time 7:48 AM PDT 6:00 PM PDT
Civil Twilight 7:15 AM PDT 6:33 PM PDT
Nautical Twilight 6:38 AM PDT 7:10 PM PDT
Astronomical Twilight 6:01 AM PDT 7:47 PM PDT
Moon 4:04 PM PDT (10/25) 3:31 AM PDT (10/25)
Length of Visible Light 11h 17m
Length of Day
10h 12m
Waxing Gibbous, 85% of the Moon is Illuminated
Oct 25
Waxing Gibbous
Oct 29
Full
Nov 6
Last Quarter
Nov 13
New
Nov 20
First Quarter

Hourly Weather History & Observations

Time (PDT) Temp. Windchill Dew Point Humidity Pressure Visibility Wind Dir Wind Speed Gust Speed Precip Events Conditions
12:00 AM 38.7 °F - 36.7 °F 93% 30.21 in - Calm Calm - N/A   Unknown
1:00 AM 36.7 °F - 35.4 °F 95% 30.23 in - Calm Calm - N/A   Unknown
2:00 AM 35.2 °F - 34.2 °F 96% 30.26 in - East 1.2 mph - N/A   Unknown
3:00 AM 35.1 °F - 34.2 °F 97% 30.28 in - Calm Calm - N/A   Unknown
4:00 AM 37.4 °F - 36.5 °F 97% 30.30 in - ENE 1.2 mph - N/A   Unknown
5:00 AM 36 °F - 36 °F 98% 30.31 in - ENE 1.2 mph - -  
8:00 AM 38.3 °F - 37.4 °F 97% 30.38 in - Calm Calm - N/A   Unknown
9:00 AM 40.5 °F - 39.2 °F 95% 30.40 in - East 2.3 mph - N/A   Unknown
10:00 AM 45.0 °F 43.5 °F 40.1 °F 83% 30.42 in - East 3.5 mph - N/A   Unknown
11:00 AM 47 °F - 39 °F 64% 30.43 in - SSE 2.3 mph - -  
11:00 AM 47.3 °F - 38.7 °F 72% 30.43 in - SSE 2.3 mph - N/A   Unknown
12:00 PM 48.4 °F - 36.5 °F 64% 30.43 in - SSW 1.2 mph - N/A   Unknown
2:00 PM 50.9 °F - 37.4 °F 60% 30.43 in - West 2.3 mph - N/A   Unknown
3:00 PM 52.2 °F - 35.8 °F 54% 30.42 in - SSE 1.2 mph - N/A   Unknown
4:00 PM 51.3 °F - 36.3 °F 57% 30.42 in - Calm Calm - N/A   Unknown
5:00 PM 50 °F - 37 °F 50% 30.43 in - West 1.2 mph - -  
5:00 PM 50.0 °F - 37.0 °F 61% 30.43 in - West 1.2 mph - N/A   Unknown
6:00 PM 47.3 °F - 39.6 °F 74% 30.43 in - Calm Calm - N/A   Unknown
7:00 PM 45.7 °F - 40.1 °F 81% 30.43 in - Calm Calm - N/A   Unknown
9:00 PM 42.1 °F - 39.2 °F 90% 30.42 in - Calm Calm - N/A   Unknown
10:00 PM 43.2 °F - 39.6 °F 87% 30.40 in - SE 1.2 mph - N/A   Unknown
11:00 PM 42 °F - 40 °F 90% 30.39 in - Calm Calm - -  
11:00 PM 42.4 °F - 40.1 °F 91% 30.39 in - Calm Calm - N/A   Unknown